Location: Brompton
(51.4000°N, 0.5333°E)
Time: 09:23:59
(UTC+00:00)

Cosmos 1238 Rocket - Pass Details

Date: 11 May 2021
Orbit: 374 x 1021 km, 82.9° (Epoch: 13 June)

Event Time Altitude Azimuth Distance (km) Brightness Sun altitude
Rises 22:12:34 0° 351° (N) 3,736 8.5 -17.0°
Reaches altitude 10° 22:15:17 10° 354° (N) 2,736 7.5 -17.2°
Maximum altitude 22:21:35 66° 76° (ENE) 976 3.9 -17.6°
Enters shadow 22:24:23 30° 149° (SSE) 1,466 4.4 -17.7°
